DELTA 1 DEB, 29185

Orbit data source: Space-Track

DELTA 1 DEB, 29185 is space debris in LEO originally from a launch on Thu, 11 Jan 1968 UTC launched from the Air Force Western Test Range (AFWTR). Debris objects in space refer to the collection of defunct objects orbiting the Earth. Examples of debris include non-operational satellites, rocket bodies, and fragments generated from explosions, collisions, or faulty payload assembly.

Loading next visibility...
Identifier
29185, 1968-002J
Orbit
LEO
Country
Flag of USUS
Related business
Manufacturer
Unknown
Mission
Spacecraft
Bus & Motor
Unknown
Mass
Unknown
Launch date (UTC)
1968-01-11 (58 years ago)
Launch vehicle
Unknown
Launch site
Air Force Western Test Range (AFWTR)
Object type
Payload
Rocket body
Debris
Shape & HBR
Unknown shape, 0.1 m
Radar Cross Section
Small (<0.1 m²)

Expand to show TLE details & history
Last TLE update: 2 weeks ago

TLE from 2 weeks ago
0 DELTA 1 DEB
1 29185U 68002J   25275.46609602  .00001084  00000-0  24670-2 0  9999
2 29185 105.7884 344.9692 0248944  25.9460 335.3874 13.19992766433101
Epoch: 2025-10-02T11:11Z
TLE epoch observation values (Epoch: 2025-10-02T11:11:10.696Z)
Latitude
-0.00001°
Longitude
165.74828°
Altitude
1,016.874 km
Speed
7.426 km/s
True Right ascension
22h 59m 52s
True Declination
0° 00' 00"
Sunlit
Object was in full shadow at epoch
Visualization orbit readout
Latitude
Unknown
Longitude
Unknown
Altitude
Unknown
Speed
Unknown
Apparent Right ascension
Unknown
Apparent Declination
Unknown
Sunlit
N/A
Visualization observer readout
Local Sidereal Time
04:21:28
Azimuth
Unknown
Elevation
Unknown
Doppler factor
Unknown
Orbital elements
Apogee altitude
1,370.703 km
Perigee altitude
994.268 km
Semi-major axis
7,560.623 km
Eccentricity
0.02489
Inclination
105.7884°
RAAN
344.9692°
Arg. of periapsis
25.946°
True anomaly
334.16485°
Mean anomaly
335.3874°
Eccentric anomaly
334.77963°
Mean motion
3.30147 °/min
Orbital period
109.04 mins
BSTAR
0.002467
Loading maneuver chart data...
Computing Atmospheric mass density...
Loading historical data...
Loading historical data...
Loading historical data...
Loading historical data...
Loading historical data...
Loading historical data...
Loading historical data...

Documentation

Showing up to 5 results
|